Hauptseite
METAR-TAF:

METAR-TAF

Flughäfen :

Le Luc, Frankreich

Flughafen Le Luc-Le Cannet

Breite: 43-23N, Länge: 006-23E, Höhe: 80 m

Beobachtung

Neuester Wetterbericht von vor 19 Minuten, um 09:00 UTC
Wind 5 kt aus West/Südwest, variierte zwischen Süd/Südwest und West
Temperatur 23°C
Luftfeuchtigkeit 41%
Luftdruck 1019 hPa
Sichtweite 10 km oder mehr
keine Wolken unter 1500 m und keine Kumulonimbus oder Gewitterwolken

METAR: LFMC 230900Z 24005KT 200V280 CAVOK 23/09 Q1019

Zeit: 11:19 (09:19 UTC)


TAF: fehlend

Wetterbeobachtungen und Prognosen von mehr als 4000 Flughäfen (METAR und TAF Bericht).

Die verfügbaren Stationen werden durch gelbe und rote Markierungen auf der Karte dargestellt.

Führen Sie die Maus auf sie, um den Namen der Station zu sehen.

Darauf klicken, um die Beobachtung von Wetterbeobachtungen und Prognosen zu sehen.

Um die Karte zu ändern : klicken Sie auf den grünen Tasten mit einem schwarzen Kreuz Zum Vergrößern, auf den grünen Button mit einem Gedankenstrich zu verkleinern, oder auf die grünen Pfeile für benachbarte Karten.


METAR-TAF: